Welcome to the New NWS' Forecast!
Most changes are behind the scenes, but click here for differences you might notice.

Regional Weather Roundup (RWR)

Issued by Gray - Portland, ME (GYX)

                            
000
ASUS41 KGYX 090805
RWRGYX
WEATHER ROUNDUP FOR MAINE AND NEW HAMPSHIRE
NATIONAL WEATHER SERVICE GRAY ME
300 AM EST SUN DEC 09 2018

MEZ002-005-006-010-012-015-018-020-021-024-026-027-029-090900-
MAINE
  
CITY           SKY/WX    TMP DP  RH WIND       PRES   REMARKS
PORTLAND       FAIR      14   5  67 W6        30.43S                  
SANFORD        FAIR      14   4  64 W7        30.43S                  
BAR HARBOR     FAIR       9   1  70 NW3       30.39F                  
WISCASSET      FAIR       6   3  87 CALM      30.44R                  
ROCKLAND       FAIR      11   2  67 NW6       30.40F                  
FRYEBURG       FAIR       3   0  87 CALM      30.39R                  
LEWISTONAUBURN FAIR       5   0  79 CALM      30.40F                  
AUGUSTA        FAIR      11   1  64 W7        30.39S                  
WATERVILLE     FAIR       6   0  76 MISG      30.36S                  
BANGOR         FAIR       8  -1  66 W7        30.38F                  
GREENVILLE       N/A      6   0  76 NW10      30.23S WCI  -9          
MILLINOCKET    FAIR       8  -1  66 W14G23    30.35S WCI  -8          
HOULTON        FAIR      -4  -8  83 SW6       30.30F                  
PRESQUE ISLE   FAIR     -10 -14  82 SW6       30.31F                  
FRENCHVILLE    FAIR      -2  -8  76 NW7       30.23F                  
CARIBOU        FAIR      -5 -10  79 W3        30.28F                  
$$

NHZ002-005-008-009-011-012-014-090900-
NEW HAMPSHIRE
  
CITY           SKY/WX    TMP DP  RH WIND       PRES   REMARKS
PORTSMOUTH     PTCLDY    18   6  60 W8        30.43F                  
ROCHESTER      FAIR      15   5  64 CALM      30.42S                  
NASHUA         FAIR      10   8  92 CALM      30.47S                  
MANCHESTER     FAIR      14   8  77 CALM      30.44S                  
CONCORD        FAIR       6   2  83 CALM      30.44S                  
LACONIA        FAIR      16   8  71 SW7       30.41S                  
PLYMOUTH       FAIR       6   4  90 CALM      30.41S                  
BERLIN         CLOUDY     3  -1  83 CALM      30.33F                  
WHITEFIELD     CLOUDY     2  -1  88 CALM      30.36S                  
JAFFREY        FAIR      11  10  96 S5        30.40S                  
KEENE          MOCLDY     7   5  91 CALM      30.46S                  
LEBANON        CLOUDY     9   3  77 CALM      30.41F                  
MT WASHINGTON  BLWGSNOW  -4  -4 100 NW61G70     N/A  VSB 1/16WCI -39  
$$

VTZ005-007-008-090900-
VERMONT
  
CITY           SKY/WX    TMP DP  RH WIND       PRES   REMARKS
ST JOHNSBURY     N/A      8   5  87 MISG      30.39S                  
MONTPELIER     MOCLDY     7   7 100 S5        30.39S                  
BURLINGTON     FAIR      12   8  84 CALM      30.43R                  
$$

MAZ007-012-024-CTZ003-RIZ002-NYZ038-NYZ072-090900-
SOUTHERN NEW ENGLAND AND NY
  
CITY           SKY/WX    TMP DP  RH WIND       PRES   REMARKS
BOSTON         FAIR      26  14  60 W9        30.49S                  
WORCESTER      FAIR      15  12  88 SW7       30.41F                  
NANTUCKET      FAIR      27  15  61 NW10      30.47F WCI  17          
PROVIDENCE     FAIR      21  14  74 CALM      30.50S                  
HARTFORD       FAIR      20  14  77 CALM      30.50S                  
ALBANY         CLOUDY    20  14  77 CALM      30.47F                  
NEW YORK CITY  FAIR      31  17  56 NW10      30.51F                  
$$

ANZ081-ANZ082-ANZ150-NHZ014-MEZ023>029-090900-
COASTAL MARINE OBSERVATIONS
  
STATION/POSITION TIME  TEMP    WIND        PRES    WAVE
                       AIR SEA DIR/SP/G            HT/PER
                 (UTC) (F)     (DEG/KT/KT) (MB)    (FT/S)
MOUNT DESERT ROC 0700   22     300/ 19/ 22 1028.6R
MATINICUS ROCK   0700   24     290/ 21/ 24 1028.7R
ISLE OF SHOALS   0700   26     260/ 18/ 20 1030.7R
JEFFREYS LEDGE   0738      46                N/A     4/ 4
CASHES LEDGE BUO 0750   28 46              1029.6S   4/ 5
$$

.............KEY..............
   WCI - WIND CHILL
   TC  - TEMPERATURE IN CELSIUS
   VSB - VISIBILITY IN MILES
   HX  - HEAT INDEX
   FAIR- INDICATES FEW OR NO CLOUDS BELOW 12,000 FT, WITH NO 
         SIGNIFICANT WEATHER AND/OR OBSTRUCTIONS TO VISIBILITY.